星链-4114 (STARLINK-4114 )

导读 | 豆包AI

STARLINK-4114是美国太空探索技术公司(SpaceX)星链(Starlink)项目的卫星,于2022年7月17日发射升空,属于星链星座组网卫星,承担卫星互联网传输任务。星链项目旨在构建全球覆盖的低轨卫星互联网,该卫星加入星座后,进一步推动了全球网络覆盖能力的扩展。

基本信息
目录编号:
53162
目录名称:
STARLINK-4114
国际标识:
2022-083AG
轨道中心:
EARTH
卫星名称:
星链-4114
卫星全名:
星链-4114 (STARLINK-4114 )
卫星状态:
在轨 (已飞行1383 天)
发射日期:
2022-07-17 UTC
国别 :
美国 (US)
星等 :
--
轨道信息
数据来源 国际轨道数据 AOE轨道数据
星历时间 2026-04-30T02:49:36+0800
1天前
查看轨道信息
2026-04-28T11:00:00+0800
2天前
查看轨道信息
半长轴 6917.891km 6917.887km
偏心率 0.000135 0.0001434
轨道倾角 53.218° 53.216°
近地点辐角 89.747° 81.898°
升交点赤经 294.758° 302.207°
平近点角 270.368° 259.534°
近地点 538.82km 538.757km
远地点 540.688km 540.743km
周期 95.438分钟 95.438分钟
每日圈数 15.088366 15.08838
详细信息
固有亮度:
5
最大亮度:
2.5
卫星平台:
Starlink v1.5
覆盖范围:
全球
运营商:
太空探索技术公司
运营商所在国:
美国
制造商(研发单位):
太空探索技术公司
制造商所在国:
美国
使用方式:
暂无
卫星简介
星链(Starlink)计划是由太空探索技术公司(SpaceX)提出的一个巨型低轨卫星互联网星座项目,计划在2019年至2024年间在太空搭建由约1.2万颗卫星组成的“星链”网络,其中1584颗将部署在地球上空550千米处的近地轨道,并从2020年开始工作。该卫星仍在工作。
2D轨道图
3D轨道图
轨道高度分析图
轨道倾角分析图
轨道综合分析图
查看轨道综合分析图